Hourly Weather Holst

Today, 11 April, Sunday

Time Temperature Precipitation Wind Pressure Humidity
00:00 +5°C° 1.3 mm 2 mps 628 mmHg 94%
01:00 +5°C° 1.2 mm 2 mps 628 mmHg 93%
02:00 +4°C° 1.2 mm 3 mps 628 mmHg 92%
03:00 +3°C° 0 mm 3 mps 628 mmHg 91%
04:00 +3°C° 0 mm 3 mps 628 mmHg 89%
05:00 +3°C° 0 mm 3 mps 628 mmHg 88%
06:00 +3°C° 0 mm 3 mps 629 mmHg 86%
07:00 +4°C° 0 mm 3 mps 629 mmHg 85%
08:00 +5°C° 0 mm 3 mps 629 mmHg 85%
09:00 +7°C° 0 mm 3 mps 629 mmHg 84%
10:00 +8°C° 0 mm 3 mps 629 mmHg 83%
11:00 +8°C° 0 mm 3 mps 629 mmHg 83%
12:00 +9°C° 0 mm 2 mps 628 mmHg 82%
13:00 +9°C° 0.4 mm 3 mps 629 mmHg 82%
14:00 +9°C° 0.4 mm 3 mps 629 mmHg 82%
15:00 +9°C° 0.4 mm 3 mps 629 mmHg 82%
16:00 +8°C° 0.1 mm 3 mps 628 mmHg 84%
17:00 +8°C° 0.1 mm 2 mps 628 mmHg 86%
18:00 +7°C° 0.1 mm 2 mps 628 mmHg 88%
19:00 +7°C° 0.1 mm 2 mps 628 mmHg 88%
20:00 +6°C° 0.1 mm 2 mps 628 mmHg 89%
21:00 +6°C° 0.1 mm 2 mps 628 mmHg 90%
22:00 +6°C° 0.4 mm 2 mps 628 mmHg 90%
23:00 +6°C° 0.4 mm 2 mps 628 mmHg 91%

Tomorrow, 12 April, Monday

Time Temperature Precipitation Wind Pressure Humidity
00:00 +6°C° 0.4 mm 2 mps 628 mmHg 91%
01:00 +6°C° 0.1 mm 2 mps 628 mmHg 91%
02:00 +6°C° 0.1 mm 2 mps 628 mmHg 90%
03:00 +5°C° 0.1 mm 2 mps 628 mmHg 89%
04:00 +5°C° 0 mm 2 mps 628 mmHg 88%
05:00 +4°C° 0 mm 2 mps 628 mmHg 87%
06:00 +4°C° 0 mm 2 mps 628 mmHg 87%
07:00 +5°C° 0 mm 2 mps 629 mmHg 85%
08:00 +7°C° 0 mm 1 mps 629 mmHg 83%
09:00 +9°C° 0 mm 1 mps 629 mmHg 81%
10:00 +9°C° 0.1 mm 1 mps 629 mmHg 82%
11:00 +9°C° 0.1 mm 1 mps 629 mmHg 82%
12:00 +9°C° 0.1 mm 1 mps 630 mmHg 83%
13:00 +9°C° 0.2 mm 1 mps 630 mmHg 86%
14:00 +8°C° 0.2 mm 1 mps 630 mmHg 88%
15:00 +7°C° 0.2 mm 2 mps 630 mmHg 91%
16:00 +6°C° 0.3 mm 2 mps 630 mmHg 92%
17:00 +6°C° 0.3 mm 2 mps 630 mmHg 94%
18:00 +5°C° 0.3 mm 2 mps 630 mmHg 96%
19:00 +5°C° 0.2 mm 2 mps 630 mmHg 96%
20:00 +6°C° 0.2 mm 1 mps 630 mmHg 96%
21:00 +5°C° 0.2 mm 1 mps 630 mmHg 95%
22:00 +5°C° 1.6 mm 1 mps 630 mmHg 96%
23:00 +5°C° 1.6 mm 1 mps 630 mmHg 97%

Day after tomorrow, 13 April, Tuesday

Time Temperature Precipitation Wind Pressure Humidity
00:00 +4°C° 1.6 mm 2 mps 630 mmHg 97%
01:00 +4°C° 0.9 mm 2 mps 630 mmHg 97%
02:00 +4°C° 0.9 mm 2 mps 630 mmHg 97%
03:00 +6°C° 0.9 mm 1 mps 630 mmHg 97%
04:00 +6°C° 0.9 mm 1 mps 630 mmHg 97%
05:00 +6°C° 0.9 mm 1 mps 630 mmHg 97%
06:00 +6°C° 0.9 mm 1 mps 630 mmHg 96%
07:00 +6°C° 0.6 mm 1 mps 630 mmHg 95%
08:00 +6°C° 0.6 mm 1 mps 630 mmHg 93%
09:00 +7°C° 0.6 mm 1 mps 630 mmHg 92%
10:00 +7°C° 0.4 mm 1 mps 630 mmHg 92%
11:00 +6°C° 0.4 mm 2 mps 630 mmHg 92%
12:00 +6°C° 0.4 mm 2 mps 630 mmHg 92%
13:00 +6°C° 0.3 mm 2 mps 630 mmHg 91%
14:00 +6°C° 0.3 mm 2 mps 630 mmHg 90%
15:00 +7°C° 0.3 mm 1 mps 630 mmHg 90%
16:00 +7°C° 0.3 mm 1 mps 630 mmHg 91%
17:00 +7°C° 0.3 mm 1 mps 630 mmHg 93%
18:00 +6°C° 0.3 mm 1 mps 630 mmHg 95%
19:00 +6°C° 0.6 mm 1 mps 629 mmHg 96%
20:00 +6°C° 0.6 mm 1 mps 629 mmHg 96%
21:00 +6°C° 0.6 mm 1 mps 629 mmHg 97%
22:00 +6°C° 1.8 mm 1 mps 629 mmHg 97%
23:00 +6°C° 1.8 mm 1 mps 628 mmHg 98%

14 April, Wednesday

Time Temperature Precipitation Wind Pressure Humidity
00:00 +6°C° 1.8 mm 1 mps 627 mmHg 98%
01:00 +5°C° 2.6 mm 1 mps 627 mmHg 98%
02:00 +4°C° 2.6 mm 2 mps 627 mmHg 97%
03:00 +4°C° 2.6 mm 2 mps 627 mmHg 97%
04:00 +5°C° 1.4 mm 1 mps 627 mmHg 97%
05:00 +5°C° 1.4 mm 1 mps 627 mmHg 96%
06:00 +4°C° 1.4 mm 1 mps 627 mmHg 96%
07:00 +5°C° 0.8 mm 1 mps 627 mmHg 94%
08:00 +6°C° 0.8 mm 1 mps 627 mmHg 92%
09:00 +6°C° 0.8 mm 1 mps 627 mmHg 91%
10:00 +6°C° 0.9 mm 1 mps 627 mmHg 92%
11:00 +6°C° 0.9 mm 1 mps 627 mmHg 94%
12:00 +5°C° 0.9 mm 2 mps 627 mmHg 96%
13:00 +5°C° 1.2 mm 2 mps 627 mmHg 96%
14:00 +6°C° 1.2 mm 1 mps 627 mmHg 97%
15:00 +6°C° 1.2 mm 1 mps 628 mmHg 97%
16:00 +5°C° 1 mm 1 mps 628 mmHg 97%
17:00 +5°C° 1 mm 1 mps 628 mmHg 97%
18:00 +5°C° 1 mm 1 mps 628 mmHg 97%
19:00 +4°C° 0 mm 1 mps 628 mmHg 95%
20:00 +4°C° 0 mm 1 mps 628 mmHg 94%
21:00 +3°C° 0 mm 1 mps 628 mmHg 92%
22:00 +3°C° 0 mm 1 mps 628 mmHg 92%
23:00 +1°C° 0 mm 2 mps 628 mmHg 92%

15 April, Thursday

Time Temperature Precipitation Wind Pressure Humidity
00:00 +1°C° 0 mm 2 mps 628 mmHg 91%
01:00 +1°C° 0 mm 2 mps 628 mmHg 90%
02:00 +1°C° 0 mm 2 mps 628 mmHg 88%
03:00 -1°C° 0 mm 2 mps 628 mmHg 87%
04:00 -1°C° 0 mm 2 mps 628 mmHg 82%
05:00 -1°C° 0 mm 2 mps 628 mmHg 76%
06:00 -2°C° 0 mm 2 mps 628 mmHg 71%
07:00 +1°C° 0 mm 2 mps 628 mmHg 70%
08:00 +4°C° 0 mm 2 mps 628 mmHg 69%
09:00 +6°C° 0 mm 2 mps 628 mmHg 67%
10:00 +6°C° 0 mm 2 mps 628 mmHg 69%
11:00 +7°C° 0 mm 2 mps 628 mmHg 71%
12:00 +8°C° 0 mm 2 mps 628 mmHg 72%
13:00 +8°C° 0 mm 2 mps 628 mmHg 74%
14:00 +8°C° 0 mm 2 mps 628 mmHg 75%
15:00 +8°C° 0 mm 2 mps 628 mmHg 77%
16:00 +8°C° 0 mm 2 mps 628 mmHg 79%
17:00 +7°C° 0 mm 2 mps 628 mmHg 82%
18:00 +6°C° 0 mm 2 mps 628 mmHg 84%
19:00 +6°C° 0 mm 2 mps 628 mmHg 83%
20:00 +5°C° 0 mm 2 mps 629 mmHg 82%
21:00 +4°C° 0 mm 2 mps 629 mmHg 81%
22:00 +4°C° 0 mm 2 mps 629 mmHg 80%
23:00 +4°C° 0 mm 2 mps 628 mmHg 79%

16 April, Friday

Time Temperature Precipitation Wind Pressure Humidity
00:00 +4°C° 0 mm 2 mps 628 mmHg 78%
01:00 +3°C° 0 mm 2 mps 628 mmHg 78%
02:00 +3°C° 0 mm 2 mps 628 mmHg 77%
03:00 +3°C° 0 mm 2 mps 628 mmHg 77%
04:00 +3°C° 0 mm 2 mps 628 mmHg 76%
05:00 +3°C° 0 mm 2 mps 628 mmHg 76%
06:00 +3°C° 0 mm 2 mps 628 mmHg 75%
07:00 +5°C° 0 mm 2 mps 628 mmHg 75%
08:00 +8°C° 0 mm 1 mps 628 mmHg 75%
09:00 +9°C° 0 mm 1 mps 628 mmHg 75%
10:00 +10°C° 0.1 mm 1 mps 628 mmHg 76%
11:00 +9°C° 0.1 mm 2 mps 628 mmHg 77%
12:00 +9°C° 0.1 mm 2 mps 628 mmHg 79%
13:00 +9°C° 0.1 mm 2 mps 628 mmHg 78%
14:00 +9°C° 0.1 mm 2 mps 628 mmHg 77%
15:00 +9°C° 0.1 mm 2 mps 628 mmHg 77%
16:00 +8°C° 0 mm 2 mps 628 mmHg 79%
17:00 +8°C° 0 mm 2 mps 628 mmHg 81%
18:00 +8°C° 0 mm 1 mps 627 mmHg 83%
19:00 +6°C° 0 mm 2 mps 627 mmHg 83%
20:00 +5°C° 0 mm 2 mps 627 mmHg 83%
21:00 +3°C° 0 mm 3 mps 627 mmHg 83%
22:00 +4°C° 0.2 mm 3 mps 627 mmHg 83%
23:00 +4°C° 0.2 mm 3 mps 626 mmHg 83%
Show more